Location: Pedimozza
(42.0500°N, 9.3500°E)
Time: 15:12:19
(UTC+00:00)

Cosmos 990 Rocket - Pass Details

Date: 19 August 2019
Orbit: 748 x 768 km, 74.0° (Epoch: 23 September)

Event Time Altitude Azimuth Distance (km) Brightness Sun altitude
Exits shadow 20:45:06 54° 190° (S) 926 4.1 -24.0°
Maximum altitude 20:46:19 84° 108° (ESE) 771 3.8 -24.1°
Drops below altitude 10° 20:51:33 10° 21° (NNE) 2,296 6.8 -24.8°
Sets 20:53:55 0° 21° (NNE) 3,222 7.6 -25.1°
